This demonstration page uses our WeatherBlox Daily Observations layout. Learn more.

Left ArrowRight Arrow

39.95238, -75.16362

Hourly Observations for May 6, 2015

Temp ( °F °C ) Dew Point ( °F °C ) Humidity (%) Winds ( mph kmh ) Pressure ( in mb ) Visibility ( mi km ) Precip ( " mm )
12:54 am 00:54 Cloudy 70 21.1 61 16.1 73 73 SW 8 13 30.22 1023 10 16 0.00 0.00
1:11 am 01:11 Cloudy 70 21.1 61 16.1 73 73 W 8 13 30.21 1023 8 13 0.00 0.00
1:15 am 01:15 Cloudy with Light Rain 70 21.1 61 16.1 73 73 W 8 13 30.21 1023 6 10 0.00 0.03
1:30 am 01:30 Cloudy with Light Rain 70 21 63 17 78 78 WSW 8 13 30.21 1023 7 11 0.00 0.00
1:54 am 01:54 Cloudy with Light Rain 71 21.7 62 16.7 73 73 W 7 11 30.21 1023 8 13 0.00 0.03
2:04 am 02:04 Cloudy 71 21.7 61 16.1 71 71 WNW 8 13 30.21 1023 10 16 0.00 0.03
2:54 am 02:54 Mostly Cloudy 67 19.4 62 16.7 84 84 Calm 30.19 1022 10 16 0.00 0.03
3:02 am 03:02 Mostly Cloudy 67 19.4 62 16.7 84 84 SW 6 9 30.18 1022 8 13 0.00 0.00
3:54 am 03:54 Partly Cloudy 67 19.4 62 16.7 84 84 SW 5 7 30.19 1023 7 11 0.00 0.00
4:54 am 04:54 Cloudy 66 18.9 62 16.7 87 87 W 3 6 30.20 1023 7 11 0.00 0.00
5:47 am 05:47 Mostly Cloudy with Mist and Fog 65 18.3 61 16.1 87 87 Calm 30.21 1023 6 10 0.00 0.00
5:54 am 05:54 Mostly Cloudy with Mist and Fog 66 18.9 61 16.1 84 84 NNW 6 9 30.21 1023 6 10 0.00 0.00
6:10 am 06:10 Partly Cloudy 67 19.4 60 15.6 79 79 N 7 11 30.21 1023 8 13 0.00 0.00
6:23 am 06:23 Partly Cloudy 67 19.4 60 15.6 79 79 NNE 8 13 30.21 1023 10 16 0.00 0.00
6:54 am 06:54 Partly Cloudy 68 20 56 13.3 65 65 ENE 7 11 30.22 1023 10 16 0.00 0.00
7:54 am 07:54 Mostly Cloudy 69 20.6 54 12.2 59 59 E 6 9 30.25 1024 10 16 0.00 0.00
8:54 am 08:54 Cloudy 71 21.7 44 6.7 38 38 ENE 13 20 30.26 1025 10 16 0.00 0.00
9:54 am 09:54 Cloudy 70 21.1 44 6.7 39 39 NE 12 19 30.26 1025 10 16 0.00 0.00
10:54 am 10:54 Cloudy 66 18.9 47 8.3 50 50 ENE 13 20 30.28 1025 10 16 0.00 0.00
11:54 am 11:54 Mostly Cloudy 70 21.1 46 7.8 42 42 E 13 20 30.27 1025 10 16 0.00 0.00
12:54 pm 12:54 Mostly Cloudy 72 22.2 46 7.8 40 40 E 8 13 30.26 1025 10 16 0.00 0.00
1:54 pm 13:54 Mostly Cloudy 74 23.3 46 7.8 37 37 ENE 5 7 30.23 1024 10 16 0.00 0.00
2:54 pm 14:54 Mostly Cloudy 76 24.4 47 8.3 36 36 E 10 17 30.22 1023 10 16 0.00 0.00
3:54 pm 15:54 Cloudy 75 23.9 49 9.4 40 40 ENE 6 9 30.21 1023 10 16 0.00 0.00
4:54 pm 16:54 Cloudy 74 23.3 49 9.4 41 41 ENE 9 15 30.20 1023 10 16 0.00 0.00
5:54 pm 17:54 Cloudy with Light Rain 70 21.1 47 8.3 44 44 E 13 20 30.21 1023 10 16 0.00 0.03
6:54 pm 18:54 Mostly Cloudy 68 20 48 8.9 49 49 E 10 17 30.20 1023 10 16 0.00 0.03
7:54 pm 19:54 Mostly Cloudy 67 19.4 47 8.3 49 49 E 10 17 30.21 1023 10 16 0.00 0.00
8:54 pm 20:54 Mostly Cloudy 65 18.3 50 10 59 59 E 8 13 30.22 1024 10 16 0.00 0.00
9:54 pm 21:54 Mostly Cloudy 63 17.2 50 10 63 63 E 7 11 30.24 1024 10 16 0.00 0.00
10:54 pm 22:54 Partly Cloudy 60 15.6 50 10 70 70 ENE 5 7 30.23 1024 10 16 0.00 0.00
11:54 pm 23:54 Mostly Clear 60 15.6 51 10.6 72 72 Calm 30.24 1024 10 16 0.00 0.00

Powered by AerisWeather